CAPE
1351 1583 1462 1472 1365 1274 1365 1318 1509 1478 1594 890 416 385 383 687 549 492 616 396 523 1023 1126 940 967 837 648 690 589 446 893 1177 712 515 393 418 522 545 912 1108 970 816 666
1749 1644 1433 995 1110 1427 1584 1645 1126 1245 1254 1023 497 392 442 795 570 517 692 767 603 988 656 482 496 1038 926 570 410 388 722 1138 1165 956 869 718 611 294 379 410 229 383 868
1693 1624 1344 956 1018 1596 1491 1446 1763 1343 973 999 821 641 551 930 573 482 765 779 740 824 606 202 298 739 1194 1160 852 608 504 306 835 955 1120 789 636 547 218 221 263 272 37
1888 1755 1445 1290 1343 1298 1688 1362 1535 1345 995 487 507 681 510 909 699 457 498 674 682 547 728 635 365 352 556 924 1271 1088 923 738 418 383 473 566 630 525 358 334 446 447 361
1621 1610 1107 1076 1435 1338 1552 1277 1186 1502 1072 817 506 580 846 736 661 402 384 442 810 923 900 715 565 421 585 732 756 929 947 846 599 384 295 257 241 250 317 295 335 305 287
1491 1454 1398 1453 1620 1295 1350 1090 959 1415 1451 1061 886 636 739 647 646 527 493 463 380 707 1104 1213 997 991 760 837 904 853 782 799 775 553 519 504 477 376 301 321 311 307 352
1497 1588 1475 1720 1792 1570 1408 1001 1244 1530 1426 1395 1002 897 868 858 641 429 430 399 387 423 508 963 1279 1011 990 1001 914 965 1006 950 893 785 613 537 528 552 524 386 352 400 387
1484 1529 1590 1659 1697 1639 1737 1734 1511 1271 1234 1320 865 852 571 376 337 246 160 341 370 358 295 424 671 972 1083 1048 1240 1145 963 876 921 961 925 767 601 504 468 444 422 422 475
1435 1358 1372 1290 1618 1646 1270 1784 1418 1288 1167 1098 1029 733 460 251 253 192 219 205 222 252 200 299 284 441 822 664 666 820 710 516 636 792 992 1158 1063 821 677 594 573 544 532
1510 1532 1493 1253 1410 1471 1695 1310 1444 1181 1135 842 1097 919 849 545 353 223 289 267 324 307 369 303 233 318 595 720 677 625 572 378 303 541 972 1239 1570 1275 1152 974 863 837 789
1699 1543 1322 1495 1151 1549 1475 1540 1281 1380 1097 995 968 960 846 772 717 486 331 314 339 326 381 499 325 290 466 570 558 862 644 250 220 303 527 565 900 1385 1336 1332 1197 1109 978
1854 1687 1574 1504 1495 1317 1336 1437 1341 1154 1180 994 977 1007 903 867 629 517 362 399 419 454 403 358 366 353 346 334 575 515 619 398 256 252 169 218 676 1005 1102 1240 1340 1181 539
1199 1457 1626 1681 1604 1592 1578 1548 1266 1196 1033 1185 1039 966 935 969 777 624 563 426 388 461 460 364 370 356 434 538 602 404 382 236 162 114 271 274 365 570 631 775 679 452 702
2 114 426 906 1303 1593 1683 1567 1562 1430 1412 1048 1040 1107 957 907 925 810 692 630 514 368 434 466 424 618 617 717 743 378 369 165 191 274 245 268 294 285 377 123 209 370 443
1 5 49 148 389 894 1288 1392 1293 1316 1422 1285 1253 1308 1265 1052 939 895 813 637 599 463 101 202 497 564 534 646 665 700 811 754 298 243 171 132 143 145 141 45 183 227 225
0 1 6 42 139 278 533 891 1051 1159 1129 1108 1130 1037 1087 1140 1057 976 893 746 592 559 495 462 231 521 531 342 511 560 768 579 441 310 262 145 88 70 55 24 105 190 144
0 2 3 6 21 88 283 433 549 947 970 1027 983 922 892 885 735 795 869 819 779 623 445 553 528 499 748 386 219 496 804 861 607 432 281 167 105 59 38 60 84 110 93
0 0 0 2 5 25 77 152 298 430 812 875 871 856 810 790 663 494 445 280 466 572 373 470 562 623 594 693 678 796 847 636 573 511 454 187 124 75 47 57 91 60 49
0 0 2 1 0 0 4 52 142 276 639 754 896 889 718 610 556 491 349 377 171 150 247 123 427 622 509 579 601 858 952 936 827 597 369 204 132 91 79 71 90 37 33
0 5 6 6 4 3 6 11 28 143 379 654 705 845 708 711 403 236 7 0 0 0 47 98 213 414 515 505 540 360 614 784 678 555 463 307 474 168 83 109 91 53 29
28 5 1 4 14 12 10 9 13 60 216 419 649 624 722 692 532 181 0 0 0 1 11 154 116 212 420 480 420 272 461 391 711 983 589 684 626 566 375 74 183 80 35
4 0 0 10 2 2 6 1 4 16 60 353 539 595 639 372 138 0 0 0 0 0 0 22 139 155 308 306 277 343 512 592 499 624 812 508 503 588 597 636 504 198 57
0 0 1 1 2 3 5 1 0 4 9 116 424 594 478 462 117 13 0 0 0 0 0 47 54 111 221 252 441 490 681 832 648 676 668 492 573 576 548 526 398 185 44
0 0 3 0 5 3 0 0 0 3 34 45 354 510 474 452 277 158 71 9 4 30 36 26 89 223 282 320 611 653 725 950 860 872 801 511 437 516 419 579 350 58 3
2 0 0 0 2 5 2 0 0 2 99 150 110 358 408 295 117 14 4 0 16 19 62 0 25 11 50 138 466 693 554 617 519 573 687 464 384 442 354 370 315 5 0
0 0 0 0 1 3 3 1 1 42 170 134 174 185 128 239 68 0 9 121 123 123 61 28 53 34 50 171 255 351 466 480 418 404 533 406 328 441 328 261 216 77 1
CIN
-6 0 -6 -4 -5 -3 -1 -7 -2 0 0 -1 -34 -37 -36 -19 -39 -42 -40 -87 -94 -72 -53 -43 -33 -35 -48 -31 -36 -45 -4 0 -9 -19 -33 -28 -10 -4 0 0 0 0 -2
-1 -1 -3 -49 -24 -5 -9 -1 -15 -1 -1 0 -14 -36 -37 -20 -29 -38 -30 -32 -78 -63 -69 -71 -60 -31 -32 -53 -56 -58 -28 -3 0 -1 -2 -4 -8 -44 -35 -22 -51 -24 -1
-9 -11 -23 -65 -48 -7 -30 -9 -2 -11 -9 -4 -11 -19 -25 -18 -23 -45 -32 -31 -35 -66 -74 -91 -77 -41 -23 -24 -36 -47 -56 -84 -25 -7 -2 -11 -24 -32 -70 -68 -53 -45 -108
-11 -7 -15 -42 -49 -48 -13 -21 -2 -5 -17 -46 -38 -26 -26 -16 -31 -44 -39 -32 -37 -32 -40 -77 -71 -66 -50 -30 -29 -33 -37 -49 -78 -74 -63 -47 -40 -44 -54 -57 -42 -34 -36
-25 -19 -51 -56 -39 -36 -11 -34 -17 -4 -19 -35 -41 -37 -24 -21 -28 -23 -37 -42 -38 -37 -23 -34 -66 -59 -55 -46 -36 -43 -37 -48 -58 -76 -88 -90 -87 -79 -72 -68 -63 -65 -62
-25 -30 -34 -39 -34 -39 -28 -54 -46 -1 -6 -28 -26 -15 -15 -22 -23 -36 -35 -32 -36 -34 -28 -31 -31 -35 -57 -57 -43 -42 -38 -41 -43 -56 -67 -73 -70 -73 -74 -76 -70 -71 -61
-14 -11 -16 -14 -27 -36 -39 -68 -36 -6 -3 -4 -9 -9 -8 -20 -30 -53 -38 -40 -36 -33 -26 -28 -35 -24 -24 -52 -60 -55 -42 -35 -38 -45 -58 -63 -71 -72 -65 -52 -52 -62 -64
-56 -36 -24 -14 -24 -24 -24 -23 -29 -22 -18 -8 -17 -1 -13 -46 -71 -103 -120 -68 -55 -38 -48 -46 -39 -38 -33 -22 -28 -48 -51 -43 -41 -46 -52 -62 -66 -66 -63 -59 -59 -49 -48
-87 -75 -57 -39 -29 -36 -13 -24 -27 -34 -13 -13 -36 -9 -8 -77 -83 -108 -109 -99 -90 -81 -91 -58 -76 -53 -41 -35 -38 -42 -65 -61 -62 -60 -64 -69 -66 -65 -60 -61 -64 -56 -51
-58 -45 -55 -26 -36 -20 -20 -20 -28 -19 -30 -13 -7 -22 -19 -7 -36 -74 -51 -76 -73 -85 -66 -62 -90 -69 -43 -36 -39 -58 -56 -70 -61 -69 -74 -74 -78 -53 -71 -62 -59 -54 -49
-30 -40 -13 -38 -16 -18 -19 -36 -18 -24 -21 -29 -8 -17 -27 -19 -4 -15 -73 -41 -12 -31 -29 -31 -52 -54 -37 -50 -41 -55 -86 -89 -80 -77 -94 -90 -88 -69 -66 -60 -56 -48 -43
-16 -30 -42 -25 -26 -17 -19 -17 -27 -12 -29 -13 -21 -8 -19 -1 -10 -19 -37 -40 -24 -28 -11 -18 -32 -29 -38 -45 -56 -92 -96 -98 -88 -91 -99 -98 -88 -74 -73 -63 -54 -48 -53
-18 -15 -11 -11 -7 -7 -13 -11 -15 -14 -9 -18 -19 -20 -6 -9 -9 -3 -5 -34 -19 -25 -22 -35 -41 -33 -36 -46 -44 -90 -112 -104 -95 -114 -108 -107 -102 -88 -88 -80 -77 -80 -58
-49 -228 -73 -29 -9 -2 0 -2 0 0 -2 -9 -9 -12 -20 -10 -6 -10 -7 -4 -6 -22 -27 -64 -41 -60 -46 -39 -41 -75 -84 -103 -99 -114 -120 -130 -153 -140 -118 -116 -103 -85 -82
-303 -445 -298 -173 -64 -8 -1 0 0 -2 -1 -1 -1 -2 -4 -15 -5 -8 -3 -18 -1 -1 -40 -49 -16 -36 -60 -41 -48 -46 -44 -54 -99 -120 -131 -148 -184 -201 -163 -193 -100 -101 -102
0 0 -290 -308 -181 -72 -5 0 0 0 0 -3 -1 -1 -1 -1 -3 -2 -5 -10 -4 0 -1 -42 -23 -13 -56 -85 -56 -67 -45 -60 -78 -88 -109 -135 -169 -196 -213 -229 -135 -108 -135
0 0 0 0 -322 -248 -35 -1 -2 0 -1 0 -2 -3 -1 -4 -12 -3 -4 -7 -6 -16 -14 -76 -29 -32 -29 -99 -117 -50 -42 -33 -31 -74 -96 -117 -151 -183 -230 -193 -159 -145 -156
0 0 0 0 0 -322 -260 -79 -8 -3 0 -1 -4 -2 -4 -11 -12 -33 -51 -83 -49 -79 -116 -86 -70 -40 -55 -30 -48 -30 -33 -31 -29 -40 -75 -94 -115 -148 -187 -175 -153 -172 -185
0 0 0 -1 0 0 -70 -208 -43 -2 0 0 -2 -2 -13 -20 -19 -22 -56 -42 -110 -104 -77 -117 -64 -34 -85 -40 -34 -22 -24 -28 -26 -44 -83 -93 -107 -121 -147 -176 -161 -199 -210
0 -25 0 -1 0 0 0 0 -132 -14 0 -1 -1 -3 -21 -7 -51 -79 -29 0 0 -1 -45 -47 -51 -11 -16 -50 -28 -43 -1 -29 -29 -27 -35 -57 -47 -95 -124 -140 -160 -176 -216
-15 0 -1 0 0 0 0 0 0 -45 0 0 0 -2 -7 -22 -31 -83 0 0 0 0 -4 -9 -21 -1 -1 -17 -42 -94 -16 -21 -5 -18 -15 -20 -16 -45 -78 -155 -105 -153 -195
-34 0 0 0 0 0 0 0 0 0 -36 0 0 -2 -1 -43 -96 0 0 0 0 0 0 -29 -7 -14 -3 -6 -32 -51 -3 -1 -8 -4 -15 -28 -12 -14 -18 -12 -30 -76 -161
0 0 0 0 0 -6 0 0 0 -1 0 -19 0 -3 -2 -2 -75 -28 0 0 0 0 0 -10 -72 -49 -2 -14 -1 -14 -3 0 -13 -2 -33 -16 -3 -18 -12 -17 -39 -67 -116
0 0 -1 0 0 -1 -9 0 0 -4 -58 -40 0 -2 -1 -3 -24 -37 -36 -4 0 -30 -4 -51 -74 -4 -3 -2 0 0 -5 0 -1 -1 -7 -18 -5 -11 -4 -5 -42 -111 -67
-7 0 0 0 0 0 0 0 0 -8 -16 -10 -27 -1 -9 -20 -100 -164 -9 0 -88 -100 -28 0 -52 -81 -31 -39 -3 0 0 0 -2 -1 -1 -8 -5 -7 -2 -3 -8 -45 0
0 0 0 0 0 0 0 0 0 -119 -46 -64 -45 -58 -98 -53 -124 0 -192 -68 -63 -81 -38 -72 -48 -82 -74 -33 -27 -1 0 0 -1 -1 -2 -9 -2 -1 -1 -2 -25 -47 -15
Wind_Speed
9 7 11 16 22 23 24 24 24 24 25 25 26 26 26 26 25 25 24 24 24 21 16 16 19 20 20 16 15 14 13 11 10 10 11 11 12 11 11 9 9 10 10
11 10 9 17 24 26 25 25 24 25 25 26 26 27 28 28 26 25 24 21 16 6 14 11 12 12 13 13 12 10 13 13 10 8 8 10 10 9 9 8 10 11 11
11 14 13 14 24 28 27 27 25 23 27 27 28 28 29 30 28 27 25 22 19 16 17 11 12 8 11 11 13 11 10 15 15 11 10 8 9 8 8 8 9 10 12
11 10 13 16 15 29 28 26 26 26 27 28 29 29 30 30 30 29 28 26 25 25 25 17 14 12 12 10 10 14 13 13 13 12 11 10 8 7 6 6 7 8 10
12 11 13 13 9 18 30 23 27 29 28 27 29 31 31 33 32 32 31 29 30 30 28 26 10 11 12 15 12 10 10 10 9 10 8 7 6 6 6 8 8 8 10
10 10 10 12 9 13 21 17 29 29 30 29 30 31 33 32 31 32 34 33 32 31 30 29 28 28 26 24 16 15 11 9 8 6 7 7 7 8 7 7 8 8 8
5 8 10 9 8 12 16 18 14 33 34 30 30 33 33 33 31 31 26 33 37 34 34 32 31 30 27 8 16 18 15 9 9 9 10 10 9 9 8 6 5 6 7
11 10 11 11 12 10 10 15 11 7 27 23 25 28 36 34 30 31 24 23 31 34 35 33 33 26 22 23 21 13 6 11 13 14 13 13 12 10 7 6 7 7 7
8 10 13 15 12 13 13 11 12 11 14 18 17 21 30 34 31 27 27 28 31 31 35 34 32 23 19 21 24 19 10 9 12 13 14 10 11 12 10 10 9 8 9
10 11 13 14 13 13 14 14 13 13 13 14 21 20 22 36 33 33 24 24 23 26 28 29 26 21 17 17 18 13 13 10 8 12 10 6 6 7 9 11 10 8 9
13 12 13 16 15 17 17 18 17 17 16 16 15 21 24 28 30 40 40 33 28 28 27 25 23 21 19 21 25 21 14 10 11 8 17 9 7 6 6 5 7 6 7
20 18 19 19 19 20 22 21 23 22 21 20 19 19 20 27 28 28 35 37 39 35 32 30 28 27 26 27 26 26 21 18 17 20 22 11 8 7 6 5 4 5 5
30 29 27 26 25 25 26 25 25 26 26 26 24 23 22 22 26 28 33 39 39 37 34 32 30 28 26 26 28 25 21 19 20 22 24 15 9 7 6 5 4 7 11
36 34 33 33 32 31 30 29 29 28 30 30 29 27 27 26 25 25 27 33 40 40 35 39 32 27 25 24 26 25 25 23 23 23 27 22 13 10 9 8 8 10 11
36 36 35 36 35 35 34 32 32 31 30 30 31 31 30 30 29 27 28 30 34 44 44 35 34 28 25 23 25 25 26 26 25 20 23 25 21 9 7 7 8 8 10
33 35 36 36 36 37 38 38 36 33 32 31 31 31 32 32 31 28 28 30 29 30 46 35 34 32 28 23 26 27 28 26 20 19 23 26 27 11 8 7 8 5 7
35 36 37 37 39 40 40 40 41 39 36 33 31 31 31 30 31 31 30 34 32 28 32 47 35 33 29 27 27 29 28 26 27 22 23 32 29 16 11 9 5 3 6
36 36 37 37 38 40 41 42 42 41 40 36 33 31 31 29 29 30 27 26 27 31 30 33 33 30 28 28 27 24 27 29 28 24 22 26 23 14 8 8 4 3 3
37 40 39 39 42 44 44 43 45 43 42 39 34 32 30 29 28 25 26 24 27 29 30 38 41 33 30 28 27 27 26 27 28 28 26 23 26 16 9 7 5 5 2
39 42 41 43 45 46 45 45 46 46 42 41 37 33 31 29 28 27 26 26 29 32 37 33 46 41 33 27 27 28 28 27 29 27 27 33 27 21 9 9 7 6 4
39 42 47 45 54 44 37 41 42 44 42 41 38 35 33 31 29 28 27 28 29 30 32 34 37 33 32 27 26 27 32 29 26 26 29 30 26 20 13 9 10 7 5
41 47 55 57 61 39 32 31 38 41 41 38 37 34 33 32 31 30 30 31 31 32 38 35 39 39 35 32 31 27 29 28 30 25 28 31 26 21 18 12 11 9 7
43 52 55 57 45 34 25 21 29 37 39 39 35 35 32 30 28 29 27 27 26 26 36 41 44 40 38 33 31 26 27 29 26 22 22 26 22 23 17 14 13 11 10
45 51 53 50 43 36 11 6 17 39 37 34 35 35 34 31 27 26 26 27 29 32 35 33 28 26 36 33 30 27 26 30 29 27 23 30 25 25 19 17 14 13 11
44 49 46 47 38 34 32 30 29 33 21 22 29 29 29 31 27 24 27 29 31 31 33 38 37 29 37 35 31 28 26 27 29 28 24 26 23 24 21 19 17 14 15
41 44 46 43 35 32 31 29 26 16 11 16 18 26 27 27 26 23 23 26 31 32 32 35 35 37 41 39 35 33 30 31 33 31 25 25 24 22 25 21 20 18 18
Wind_Direction
145 130 351 321 297 287 279 273 271 262 259 255 252 252 252 249 255 261 261 258 246 195 172 178 192 201 201 184 178 178 178 154 145 145 157 162 170 174 177 157 165 173 164
170 173 172 263 288 275 273 276 275 267 268 260 260 256 250 249 256 270 277 285 309 124 169 161 163 166 175 174 172 165 179 181 165 152 152 167 169 173 172 174 181 188 190
179 190 194 199 227 276 278 280 287 292 262 265 262 258 259 256 263 271 278 287 299 306 188 169 171 157 172 173 180 175 172 191 196 182 177 170 176 175 179 179 185 191 198
184 186 198 206 204 254 280 286 283 280 276 269 269 266 266 265 267 270 273 280 281 280 281 195 187 184 186 180 179 188 187 191 193 194 190 189 185 185 184 184 189 194 200
193 195 199 201 197 210 262 298 289 280 280 282 274 271 268 264 268 266 271 276 272 272 274 280 187 193 195 200 191 186 187 189 190 195 193 193 194 196 197 201 200 200 205
200 198 200 203 197 203 217 307 283 284 277 284 279 275 269 275 279 274 270 273 272 272 275 277 277 279 221 220 204 204 198 199 198 198 197 198 197 200 202 206 208 210 212
240 219 212 210 208 210 212 209 205 236 270 283 286 279 279 279 284 282 291 278 267 273 272 275 276 279 289 308 210 214 213 212 211 211 210 212 211 213 218 225 229 227 224
220 227 231 226 219 224 222 212 212 250 288 293 296 296 279 280 286 285 289 290 281 275 273 277 278 290 297 299 303 307 283 216 216 219 222 224 225 231 247 270 250 247 249
247 252 235 233 240 236 232 239 231 249 284 294 293 296 287 278 287 292 290 287 282 283 276 277 281 290 295 297 298 300 281 231 220 221 221 231 236 239 250 245 250 265 289
280 266 249 251 256 254 250 255 253 258 263 277 294 288 288 276 282 284 294 296 297 290 288 286 289 294 296 301 299 287 288 272 247 222 225 285 260 254 243 237 243 260 252
305 292 282 289 274 281 275 268 266 271 265 265 271 289 288 285 282 272 273 285 291 292 291 294 298 296 296 300 302 300 286 257 288 264 311 303 291 273 250 267 248 261 275
321 314 308 298 293 288 288 281 276 263 266 268 270 274 279 284 284 283 280 281 280 285 287 287 290 293 295 294 298 299 293 291 295 302 308 303 292 263 262 297 280 309 290
316 313 311 305 301 297 294 289 284 279 270 270 266 268 272 273 282 284 282 279 279 280 285 286 289 292 295 293 292 296 294 294 296 301 305 311 292 261 272 273 289 329 339
312 310 307 304 301 297 294 291 288 283 282 275 270 268 269 273 276 277 280 282 279 276 283 279 288 292 294 295 290 292 293 295 297 300 302 308 300 253 288 301 313 329 336
315 313 310 304 300 296 292 288 286 283 281 279 274 271 269 271 273 274 276 278 280 273 274 282 284 292 293 294 289 290 292 295 297 300 303 305 311 291 275 287 310 324 333
323 318 313 308 303 297 291 287 283 280 279 277 276 273 271 271 270 271 272 275 276 280 273 283 284 287 288 292 290 288 290 293 298 302 303 301 299 306 292 292 305 313 331
325 321 317 312 305 299 294 289 282 278 275 273 272 272 270 269 268 268 273 275 274 274 278 272 283 284 285 286 289 287 287 289 293 296 298 289 293 301 296 293 277 286 328
325 323 320 316 311 304 297 290 285 278 272 269 269 268 268 269 265 265 264 250 258 269 268 276 279 279 280 283 286 287 285 286 289 293 295 294 298 298 277 284 261 252 317
325 322 319 315 312 304 299 292 283 278 272 267 263 263 264 264 264 260 263 259 264 273 272 272 273 276 275 278 281 285 285 286 286 286 289 293 291 297 271 241 251 300 301
327 324 321 314 309 303 298 293 282 275 272 267 261 259 261 261 260 261 261 267 276 279 277 273 271 267 269 271 275 280 283 283 282 285 286 278 285 291 262 224 260 285 297
330 328 324 317 306 302 295 291 282 271 269 266 262 259 259 262 261 261 264 273 277 280 278 275 269 265 264 265 269 276 276 280 282 283 280 278 284 292 289 249 277 265 260
336 332 325 316 301 308 295 285 277 268 267 265 261 259 260 262 263 263 265 271 278 276 276 269 263 260 262 265 269 272 275 276 276 282 277 277 282 290 294 288 280 270 278
340 333 331 322 324 320 309 292 278 266 265 264 262 259 260 262 264 267 266 267 270 271 271 266 261 262 262 263 266 268 271 272 274 279 282 282 285 288 294 293 288 285 287
341 340 335 329 319 308 309 236 239 260 266 266 261 258 259 262 264 266 269 268 272 277 271 263 265 266 260 262 263 266 270 270 272 274 278 277 283 287 294 297 294 289 291
343 344 348 330 313 309 304 294 233 269 277 272 263 259 258 262 265 264 268 269 273 276 270 259 260 268 264 261 262 265 266 266 268 271 274 277 284 287 292 294 298 295 299
348 350 344 329 314 308 312 304 287 290 285 275 267 260 260 265 269 266 266 268 270 274 270 263 261 262 258 259 259 260 264 265 266 270 273 274 280 287 289 295 295 299 302